Regional Weather Roundup
Issued by NWS

Home | Current Version | Previous Version | Text Only | Print | Product List | Glossary On
Versions: 1 2 3 4 5 6 7 8 9 10 11 12 13 14 15 16 17 18 19 20 21 22 23 24 25 26 27 28 29 30 31 32 33 34 35 36 37 38 39 40 41 42 43 44 45 46 47 48 49 50
000
ASUS43 KMKX 220921
RWRWI

WISCONSIN REGIONAL WEATHER ROUNDUP
NATIONAL WEATHER SERVICE MILWAUKEE/SULLIVAN WI
400 AM CDT WED OCT 22 2014

NOTE: "FAIR" INDICATES FEW OR NO CLOUDS BELOW 12,000 FEET WITH NO
SIGNIFICANT WEATHER AND/OR OBSTRUCTIONS TO VISIBILITY.

WIZ001-002-006>008-014>016-023>028-221000-
NORTHWEST WISCONSIN

CITY           SKY/WX    TMP DP  RH WIND       PRES   REMARKS
SUPERIOR ARPT  CLEAR     28  27  98 CALM      30.21S
ASHLAND        CLEAR     28  26  92 S3        30.25R
HAYWARD        CLEAR     40  34  79 S7        30.24R
SIREN          CLEAR     42  35  75 S7        30.21S
CUMBERLAND     CLEAR     37  32  81 S6        30.23S WCI  33
RICE LAKE      CLEAR     37  33  87 SE5       30.26R WCI  33
CHETEK         CLEAR     37  34  89 SE6       30.25S WCI  32
LADYSMITH      CLEAR     34  33  93 SE5       30.27S WCI  30
EAU CLAIRE     CLEAR     38  32  79 SE7       30.25S WCI  33
MENOMONIE      CLEAR     37  33  89 E5        30.25S WCI  33
NEW RICHMOND   CLEAR     40  35  82 SE8       30.22S WCI  35
OSCEOLA        CLEAR     41  37  83 SE8       30.24R
$$

WIZ003>005-009-010-017-018-221000-
NORTH CENTRAL WISCONSIN

CITY           SKY/WX    TMP DP  RH WIND       PRES   REMARKS
MANITOWISH WTR CLEAR     33  32  95 SE7       30.26F WCI  27
ARBOR VITAE    CLEAR     32  31  94 SE5       30.28S WCI  28
WOODRUFF       CLEAR     32  31  94 SE5       30.28S WCI  28
RHINELANDER    CLEAR     30  28  92 SE5       30.30S WCI  25
EAGLE RIVER    CLEAR     28  28 100 CALM      30.28F
LAND O LAKES   CLEAR     24  23  97 CALM      30.30S
PHILLIPS       CLEAR     30  29  97 CALM      30.26S
TOMAHAWK       PTCLDY    29  28  96 CALM      30.29F
MEDFORD        CLEAR     32  32  97 SE3       30.28S
MERRILL        PTCLDY    26  25  95 CALM      30.30S
$$

WIZ029-030-035-036-043>047-221000-
CENTRAL WISCONSIN

CITY           SKY/WX    TMP DP  RH WIND       PRES   REMARKS
WAUSAU         PTCLDY    32  30  92 SE3       30.30S
MOSINEE        PTCLDY    30  30 100 E5        30.31S WCI  25
MARSHFIELD     CLEAR     33  31  92 E5        30.29S WCI  29
STEVENS POINT  PTCLDY    25  24  95 CALM      30.32R
WAUPACA        PTCLDY    31  30  96 CALM      30.33S
WAUTOMA        PTCLDY    26  24  92 CALM      30.32S
WISC RAPIDS    PTCLDY    28  26  92 SE3       30.32S
CAMP DOUGLAS   PTCLDY    24  24 100 E6        30.30S WCI  17
$$

WIZ011>013-019>022-031-037>040-048>050-221000-
NORTHEAST WISCONSIN

CITY           SKY/WX    TMP DP  RH WIND       PRES   REMARKS
ANTIGO         CLEAR     31  30  97 CALM      30.31S
SHAWANO        CLEAR     35  32  89 NE3       30.33F
OCONTO         CLEAR     30  30 100 CALM      30.34S
STURGEON BAY   CLEAR     36  30  80 CALM      30.34R
GREEN BAY      CLEAR     30  29  96 CALM      30.34R
MANITOWOC      CLEAR     31  30  96 CALM      30.33S
APPLETON       CLEAR     36  32  87 NE5       30.33R WCI  32
CLINTONVILLE   CLEAR     30  30 100 CALM      30.33S
OSHKOSH        PTCLDY    31  30  96 CALM      30.31S
$$

WIZ032>034-041-042-053>061-221000-
SOUTHWEST WISCONSIN

CITY           SKY/WX    TMP DP  RH WIND       PRES   REMARKS
LA CROSSE      CLEAR     40  35  83 SE8       30.27F WCI  34
SPARTA         PTCLDY    26  25  98 CALM      30.30S
VIROQUA        CLEAR     36  36 100 SE6       30.27S WCI  31
BOSCOBEL       FOG       34  33  96 CALM      30.31R VSB 1/4
PRAIRIE DU CHI CLEAR     37  34  91 E3        30.29S
PLATTEVILLE    CLEAR     35  33  93 E7        30.31R WCI  29
$$

WIZ056-057-062-063-064-067-068-221000-
SOUTH CENTRAL WISCONSIN

CITY           SKY/WX    TMP DP  RH WIND       PRES   REMARKS
REEDSBURG      CLEAR     29  28  98 CALM      30.31R
BARABOO/DELLS  CLEAR     29  28  96 CALM      30.30S
LONE ROCK      FOG       33  29  85 CALM      30.32R VSB 1/4
MINERAL POINT  CLEAR     37  34  87 E3        30.29S
MADISON        PTCLDY    29  28  96 N3        30.31R FOG
MIDDLETON        N/A     31  31 100 CALM      30.31R
WATERTOWN      PTCLDY    28  27  99 CALM      30.30S
MONROE         PTCLDY    36  36 100 NE3       30.29R
JANESVILLE     PTCLDY    32  30  93 CALM      30.30S FOG
$$

WIZ051-052-058>065-066-070>072-221000-
SOUTHEAST WISCONSIN

CITY           SKY/WX    TMP DP  RH WIND       PRES   REMARKS
MILWAUKEE      CLEAR     38  33  82 W5        30.31R WCI  34
WAUKESHA       CLEAR     32  32 100 CALM      30.32R
MILWAUKEE/TIMM MOCLDY    32  30  93 CALM      30.32R
RACINE         CLEAR     36  33  89 W5        30.31R WCI  32
BURLINGTON     CLEAR     28  28 100 CALM      30.30S FOG
KENOSHA        CLEAR     34  33  96 NW6       30.30R WCI  29
FOND DU LAC    PTCLDY    27  25  92 SE3       30.32S FOG
SHEBOYGAN      CLEAR     29  28  96 NW3       30.32R
WEST BEND      PTCLDY    30  28  93 CALM      30.31R
JUNEAU         FOG       31  31  99 N6        30.32S VSB 1   WCI  26
$$

LSZ147-162-221000-
LAKE SUPERIOR

STATION/POSITION TIME  TEMP    WIND        PRES    WAVE
                       AIR SEA DIR/SP/G            HT/PER
                 (UTC) (F)     (DEG/KT/KT) (MB)    (FT/S)
W MID LAKE BUOY  0850   45 46  160/ 14/ 17 1024.9S   3/ 4
DEVILS ISLAND    0900   45     170/  7/  9 1024.7R
PORT WING        0800   43     170/  4/  6 1023.4R
SAXON HARBOR     0800   32        CALM     1024.0S
$$

LMZ867-665-643>646-221000-
LAKE MICHIGAN

STATION/POSITION TIME  TEMP    WIND        PRES    WAVE
                       AIR SEA DIR/SP/G            HT/PER
                 (UTC) (F)     (DEG/KT/KT) (MB)    (FT/S)
CHAMBERS ISLAND  0800   34      CALM  /  3 1027.1S
N MID LAKE BUOY  0850   45 51  160/  6/  8 1028.0R   1/ 3
NORTHPORT PIER   0800   44     130/  4/  8 1027.1R
KEWAUNEE LAKESHO 0900   42     310/  2/  3 1026.2R
SHEBOYGAN LAKESH 0900   46 49  100/  9/ 10 1027.3R
PORT WASHINGTON  0800   37     270/  3/  4 1026.8R
ATWATER BUOY     0900   49     100/  4/  6 1027.1R
MILWAUKEE LAKESH 0900   41     320/  4/  5   N/A
S MID LAKE BUOY  0850   47 54  110/ 12/ 14 1026.4R   3/ 5
KENOSHA   LAKESH 0900   39     300/  5/  6 1025.7R
$$

TC  - TEMPERATURE IN CELSIUS
VSB - VISIBILITY IN STATUTE MILES
WCI - WIND CHILL INDEX
HX  - HEAT INDEX




USA.gov is the U.S. government's official web portal to all federal, state and local government web resources and services.